Theta_e
321 324 322 321 322 318 319 318 319 318 318 318 317 318 318 317 315 316 316 314 314 314 316 318 319 322 328 332 332 332 328 325 324 324 323 325 327 328 328 326 325 324 325 326
323 322 318 316 320 321 317 319 318 317 316 316 316 317 315 312 315 314 316 315 315 314 313 316 318 319 324 328 332 332 330 325 324 323 323 322 323 324 326 325 324 324 324 324
320 317 317 318 320 323 321 320 318 320 318 317 319 320 318 316 314 315 315 314 314 314 314 313 316 318 319 326 330 331 331 328 326 324 323 323 323 323 323 324 324 324 323 323
319 315 318 319 321 321 321 320 318 319 320 319 317 321 317 316 315 314 314 313 312 311 312 312 315 316 317 320 326 329 331 329 328 325 324 324 324 323 323 323 323 323 323 322
318 318 318 320 320 320 318 318 320 318 318 319 319 320 317 316 316 315 314 312 311 311 312 313 313 315 318 318 321 326 330 330 328 326 325 325 324 324 323 322 322 322 322 322
315 314 316 318 316 317 316 317 317 317 320 322 319 319 316 314 315 313 312 311 311 311 311 310 312 314 315 316 319 325 328 330 330 328 326 325 325 325 324 322 322 322 322 322
316 315 315 315 317 316 317 318 310 323 323 320 314 318 317 313 312 312 312 311 310 309 309 308 310 311 314 316 316 321 327 329 330 329 326 325 326 325 325 324 322 322 322 322
316 318 315 314 317 319 319 318 317 312 314 316 313 319 316 314 313 313 312 312 311 309 309 309 310 313 315 316 318 315 325 328 329 329 328 326 326 325 325 325 324 323 323 323
316 314 311 313 314 316 318 321 315 312 307 310 313 314 314 314 313 312 310 310 312 311 309 310 310 311 311 311 312 314 317 324 328 329 330 328 326 326 326 326 325 324 324 323
311 313 310 313 313 314 316 315 320 316 316 317 315 316 314 315 315 312 313 310 309 309 308 306 306 309 310 310 311 311 310 311 316 325 328 329 329 328 327 327 327 326 325 324
310 310 309 311 314 317 317 317 315 314 314 314 313 313 310 312 310 311 310 310 309 308 306 304 303 306 308 310 311 311 312 312 311 310 312 322 327 329 329 329 328 328 327 326
312 310 310 313 312 312 315 315 315 316 314 311 312 312 312 311 310 310 311 309 310 307 305 303 303 306 307 308 309 310 310 310 311 311 310 309 314 326 327 329 329 329 328 327
313 314 313 314 314 314 314 315 315 314 312 315 316 314 311 312 310 312 311 310 310 310 309 307 304 304 305 305 306 306 307 308 308 309 310 309 309 309 322 327 327 328 329 328
312 313 314 313 312 313 314 314 315 316 317 314 314 311 310 311 311 311 309 307 306 306 305 306 305 303 303 302 302 302 302 303 303 304 306 309 310 309 308 311 323 327 328 328
313 315 313 310 311 312 313 314 315 317 315 315 313 313 312 310 310 310 305 306 306 305 304 303 302 301 302 302 301 300 300 300 300 300 302 304 308 310 309 309 310 315 324 328
312 314 313 312 312 311 312 313 314 315 315 315 312 311 309 307 306 307 307 306 305 305 304 302 302 302 301 301 300 299 299 299 298 299 299 301 304 306 308 308 309 311 317 323
313 313 313 316 313 313 312 311 313 313 313 314 315 313 309 309 309 308 306 305 305 303 302 301 300 300 299 299 298 298 297 298 297 297 298 298 299 301 304 306 306 309 313 318
312 313 312 311 314 317 311 307 309 312 312 312 312 309 309 308 306 304 303 303 301 300 298 297 297 296 295 296 295 294 294 295 295 295 295 294 295 297 299 301 303 305 308 312
312 312 310 312 314 309 305 306 307 308 308 306 310 308 307 305 303 301 298 297 296 295 294 293 292 292 292 292 291 291 292 292 293 294 292 293 293 294 297 298 301 303 305 309
312 311 310 305 312 313 307 304 304 304 306 300 304 305 306 305 308 302 295 292 292 290 289 288 287 288 288 287 288 289 290 290 291 291 290 291 292 293 294 297 298 300 303 305
313 311 312 308 302 303 297 296 302 306 305 293 292 294 297 299 295 292 290 288 286 285 284 284 284 284 283 284 286 286 286 288 288 288 288 290 291 293 293 295 297 298 300 301
311 310 310 305 305 307 286 295 304 296 288 286 285 284 287 287 286 286 285 284 283 282 281 281 281 280 281 282 282 281 282 283 284 286 288 289 291 292 293 294 295 296 297 299
308 302 304 300 297 285 283 284 283 283 282 281 281 280 280 281 282 282 281 281 280 279 278 278 277 277 278 278 277 278 279 279 283 285 287 288 290 291 293 294 294 295 296 298
294 285 296 294 285 282 281 279 279 278 278 277 277 277 277 278 280 279 279 278 277 276 276 274 274 275 275 274 274 274 275 278 281 282 285 287 288 291 292 293 294 294 295 296
279 282 287 285 283 282 278 276 276 276 275 275 275 275 275 276 276 275 275 275 273 273 272 272 272 272 271 271 271 272 273 276 276 279 284 286 287 288 291 292 293 294 294 295
275 275 282 283 276 278 277 274 273 274 273 272 272 272 273 273 273 271 271 271 270 270 269 269 269 268 268 268 268 270 272 272 273 276 281 283 285 287 289 291 292 293 294 295
Wind_Speed
8 10 21 29 18 8 10 5 10 3 6 2 7 15 13 16 14 15 12 9 9 9 13 17 17 23 33 33 34 38 39 45 43 42 41 39 41 41 40 39 39 36 35 36
7 25 19 8 10 13 7 14 9 4 4 7 9 16 13 9 15 10 12 9 9 6 8 18 24 19 28 36 39 39 43 42 44 40 42 37 31 35 42 41 41 39 39 39
16 11 10 12 13 14 18 18 8 4 2 4 2 16 11 6 6 6 5 7 6 9 10 11 21 29 26 33 38 41 45 45 47 45 33 32 29 31 32 40 43 46 44 43
14 18 20 13 16 18 20 15 6 7 5 8 5 10 6 4 9 7 7 7 9 9 9 12 18 24 30 31 37 42 45 45 47 43 35 36 36 34 40 35 35 42 47 47
16 12 15 18 23 18 10 10 13 6 6 1 9 2 5 4 8 8 8 9 9 10 11 15 16 26 33 34 37 40 43 42 44 43 44 40 35 35 37 33 34 41 45 47
18 4 16 13 11 17 6 5 4 4 6 11 19 6 16 11 9 8 7 9 9 11 13 13 19 25 27 31 32 37 39 42 45 46 48 43 40 38 31 32 34 36 37 41
16 15 2 8 7 8 8 7 1 7 8 16 9 7 23 5 9 12 12 12 12 11 8 8 9 15 24 20 23 32 35 35 43 45 44 46 47 44 39 36 34 32 33 36
16 11 22 8 14 8 18 18 6 8 6 6 5 10 13 6 13 15 14 16 7 9 8 9 9 10 12 10 11 15 25 31 31 35 42 45 45 41 41 39 37 37 37 38
16 17 7 4 5 17 8 13 12 5 2 3 5 7 7 9 10 7 9 6 8 5 4 1 1 4 8 12 12 11 11 22 31 34 36 36 38 40 39 38 38 39 38 37
6 6 5 22 5 12 12 9 7 7 6 6 4 4 6 2 2 6 3 7 5 3 2 4 7 15 20 18 16 16 14 12 15 25 34 37 37 40 41 38 38 37 36 36
6 4 4 15 17 15 8 8 5 4 5 5 3 6 8 12 8 7 6 5 4 6 6 8 9 20 23 26 27 22 21 22 20 16 20 31 38 38 39 40 40 38 36 35
13 3 4 18 22 20 18 21 17 8 6 3 2 7 3 7 10 7 6 4 4 6 7 7 10 18 23 27 29 29 31 30 30 29 26 23 27 34 36 37 37 36 38 38
17 5 5 3 2 0 23 14 16 7 3 8 8 10 6 5 8 4 6 2 1 3 4 5 9 12 19 25 28 29 31 32 33 31 32 33 30 28 34 37 37 36 37 37
22 5 13 15 17 13 19 27 20 19 11 18 12 18 8 5 7 2 5 4 5 5 5 3 3 5 11 16 21 24 27 30 33 34 34 32 32 35 31 34 36 36 38 38
17 17 11 7 5 18 22 26 24 19 26 16 20 15 15 8 4 7 7 6 6 5 5 4 4 4 11 15 19 24 27 33 34 33 35 35 33 30 33 33 33 35 37 41
17 7 16 12 1 8 13 18 20 23 24 18 11 11 6 7 7 6 6 6 5 5 6 7 7 9 14 19 22 23 29 32 31 33 35 39 36 35 32 31 35 34 34 37
18 12 9 18 7 5 1 20 19 16 16 19 15 26 7 5 7 7 7 6 6 6 6 6 7 11 17 20 22 23 28 34 35 33 34 36 36 36 33 32 33 34 32 34
12 19 7 3 10 13 3 14 16 20 15 16 17 5 12 7 6 9 6 6 6 6 6 7 11 15 17 19 20 24 22 25 27 27 28 34 35 36 36 34 33 33 32 30
14 8 4 6 8 1 1 4 9 11 9 4 13 6 6 15 9 7 7 8 8 6 8 9 12 14 16 17 23 23 25 25 26 27 33 37 37 36 36 34 35 32 29 31
13 12 5 4 5 5 4 2 3 7 3 7 4 8 9 8 7 3 5 8 7 11 13 16 18 16 18 23 23 23 23 25 25 31 35 38 36 34 34 34 35 33 28 31
9 7 8 4 3 4 5 10 4 8 2 8 10 10 8 5 4 5 7 7 10 12 17 20 18 18 22 25 25 23 24 23 30 33 35 37 34 32 33 34 30 30 28 29
5 6 3 3 4 6 15 5 3 5 9 11 12 13 11 9 9 9 9 11 15 18 22 22 21 21 23 23 25 27 26 32 32 32 32 32 33 33 32 33 32 31 31 28
3 1 4 3 4 6 13 14 12 14 10 8 11 11 10 10 10 10 10 12 15 18 21 21 23 23 20 20 23 26 31 35 35 34 32 34 36 33 32 32 30 26 26 26
3 11 4 6 6 10 11 12 13 13 12 11 10 11 10 10 10 11 11 11 16 19 20 24 24 22 24 25 25 25 32 33 34 34 33 32 32 34 31 29 26 23 21 20
4 9 5 8 10 10 11 13 12 11 11 12 11 12 11 10 10 12 11 12 18 20 21 23 22 24 28 31 31 32 31 31 33 32 30 30 29 30 32 28 26 24 24 25
8 6 4 3 6 4 7 9 13 11 12 12 12 12 12 12 10 15 12 17 18 21 23 22 23 26 29 32 33 36 32 31 31 31 28 28 31 30 29 29 31 26 25 27
Wind_Direction
182 191 211 206 204 194 188 201 210 210 232 203 238 259 251 256 249 249 250 252 250 255 271 289 280 256 240 234 229 229 227 225 221 218 221 227 229 229 230 234 236 235 232 233
168 216 215 149 196 203 202 212 215 257 210 171 265 266 254 240 256 232 238 238 249 269 277 285 285 266 240 235 232 228 228 223 223 218 219 217 224 232 235 236 235 236 235 234
196 226 160 177 193 199 219 219 186 175 198 250 322 283 262 235 242 258 223 223 228 233 255 266 267 269 256 232 227 226 229 224 225 223 216 215 218 233 239 237 236 236 235 236
221 226 187 186 201 195 217 215 163 187 159 240 154 265 239 200 245 243 240 242 246 253 254 256 262 265 264 250 241 232 229 223 224 219 211 211 212 215 229 236 235 234 237 237
209 170 202 197 207 182 223 170 193 175 194 97 242 268 270 185 250 253 265 256 249 254 254 259 251 250 263 263 246 237 229 224 223 216 215 216 221 225 226 224 232 237 237 239
214 174 182 203 196 194 137 84 132 145 187 236 239 179 267 239 248 249 230 238 243 250 257 259 275 274 273 272 255 238 225 221 223 223 221 217 220 224 225 223 223 228 230 235
217 226 256 167 145 181 174 141 193 214 215 236 152 176 243 242 244 251 267 251 243 245 274 288 276 285 283 278 270 244 228 221 222 220 220 219 223 226 225 226 224 228 223 225
194 205 217 181 201 181 197 201 191 197 204 234 158 222 237 234 245 250 241 258 265 258 249 257 261 268 284 285 299 263 235 232 229 225 224 226 226 227 229 229 227 225 229 233
201 218 205 188 146 168 195 207 202 97 100 82 210 279 292 251 268 299 262 248 254 207 192 189 57 291 2 13 2 337 299 252 241 235 234 232 231 231 232 233 233 232 232 234
205 197 197 193 142 213 181 157 179 208 194 227 240 264 233 281 244 344 127 170 201 99 114 22 22 2 353 356 360 6 357 318 286 263 249 243 239 237 237 238 237 234 234 232
195 144 229 159 203 181 174 203 197 173 173 189 195 247 205 232 215 161 147 135 37 41 17 8 357 354 356 351 342 335 346 348 337 320 287 270 255 247 242 239 240 239 238 234
197 169 167 199 208 205 197 209 199 204 221 214 132 254 224 212 139 143 131 94 21 37 27 22 18 10 2 354 346 342 334 334 340 335 324 308 284 263 253 247 244 240 238 236
188 201 150 102 34 318 211 206 205 197 87 196 197 247 152 134 135 106 118 100 92 56 17 13 23 9 360 356 350 348 348 339 336 336 334 325 311 289 268 255 250 243 239 236
180 166 215 209 207 183 197 210 202 202 208 222 211 230 263 211 151 167 152 140 81 66 64 67 47 22 8 6 360 347 347 343 337 335 330 322 320 311 297 278 263 254 246 240
201 206 197 234 259 182 200 202 201 203 218 214 231 229 223 257 179 171 160 168 163 139 97 72 39 6 0 359 358 346 2 343 344 338 330 320 314 311 310 302 285 271 258 247
196 213 199 207 293 171 195 202 198 207 221 221 224 253 173 187 131 155 149 132 96 63 46 24 11 9 359 349 347 344 351 343 334 352 333 322 317 312 307 305 300 288 275 259
187 188 181 206 156 94 241 206 195 207 213 210 217 236 105 187 190 153 148 138 103 73 39 30 15 1 350 347 344 336 334 340 332 347 336 331 329 318 310 306 301 295 286 275
188 193 185 160 164 215 228 176 181 202 213 212 231 230 184 179 108 90 74 106 73 45 31 18 5 352 344 339 341 331 329 327 331 333 330 329 328 322 317 311 303 298 288 275
183 156 155 164 200 329 309 155 162 170 216 208 226 187 145 127 100 65 44 52 50 36 20 10 359 344 337 343 340 335 330 332 331 331 330 330 326 317 320 311 305 300 287 279
190 193 158 168 167 179 195 176 62 101 237 354 248 185 149 154 164 131 34 42 28 20 10 4 354 351 350 344 341 336 333 332 332 329 324 323 324 318 314 315 304 299 287 278
183 184 192 146 111 282 359 325 308 152 187 28 32 38 38 94 51 56 34 28 21 12 7 358 356 351 344 343 345 339 332 330 326 324 322 324 326 324 324 318 310 302 290 280
154 137 181 108 107 233 353 320 171 73 61 45 38 28 40 39 33 20 18 11 7 2 356 356 349 342 341 346 346 336 330 328 325 324 321 321 324 324 322 320 316 310 300 283
124 20 135 23 109 70 44 68 47 60 72 40 35 25 22 24 13 8 359 2 358 353 347 347 341 334 340 344 344 332 327 329 328 326 324 322 323 322 322 320 318 310 301 280
78 17 89 134 72 76 61 58 52 47 52 36 30 22 26 15 9 1 355 351 347 346 343 339 336 335 332 338 337 329 327 331 327 323 320 322 319 321 320 316 312 306 294 279
348 326 42 93 111 109 65 44 28 38 34 28 19 17 20 9 3 355 347 345 338 334 335 334 332 330 326 330 329 329 330 329 325 322 317 319 319 317 316 310 301 299 294 282
359 11 28 77 37 357 67 42 24 24 17 15 4 3 8 9 356 351 338 333 329 327 328 329 327 325 323 323 322 326 329 329 325 319 316 316 316 314 312 310 307 301 302 295